Retour au catalogue

STARLINK-38259

ActifCommunicationsSSO
NORAD 100252·PAYLOAD·🇺🇸 United States

Lancé Aug 8, 2026 depuis Vandenberg Space Force Base

Loading…

Prochains Passages (prochaines 24 heures)

TLE

FraisSource: Space-Track

Époque: Sep 14, 2026, 13:20 UTC

1 A0252U 26181G   26257.55603167  .00250433  00000-0  16278-2 0  9995
2 A0252  97.2833 300.8408 0000526   7.7441 352.3832 15.75236588  6970

Suivez STARLINK-38259 en temps réel avec AllMySat

Download on the App Store